Location: Groß Gleidingen
(52.2309°N, 10.4271°E)
Time: 21:59:29
(UTC+00:00)

Daily predictions for brighter satellites

Satellite Brightness Start Highest point End
(mag) Time Altitude Azimuth Time Altitude Azimuth Time Altitude Azimuth
Cosmos 2100 Rocket 4.1 16:45:36 10° N 16:51:55 88° E 16:58:07 10° S
BlueWalker 3 4.4 16:52:42 10° W 16:55:30 22° SW 16:58:17 10° SSE
Meteor 1-21 Rocket 4.5 16:49:58 10° S 16:55:41 54° E 17:01:28 10° NNE
SJ-6F 4.3 16:52:23 10° SSE 16:56:17 62° ENE 17:00:11 10° N
Cosmos 2082 Rocket 3.9 16:51:46 10° W 16:56:33 27° NW 17:01:22 10° NNE
CARTOSAT-1 4.4 16:56:24 10° ESE 16:59:57 27° ENE 17:03:32 10° N
Cosmos 1864 Rocket 4.4 16:55:37 10° N 17:01:46 75° ENE 17:07:55 10° SSE
Cosmos 1356 Rocket 3.7 16:58:20 10° N 17:02:03 39° ENE 17:05:46 10° SE
USA 267 3.3 16:55:30 10° ENE 17:02:06 83° SSE 17:08:40 10° WSW
Cosmos 2297 Rocket 3.7 17:02:58 10° SE 17:06:22 16° E 17:09:46 10° ENE
USA 290 3.1 17:04:01 10° SSE 17:06:49 29° ESE 17:09:38 10° NE
Cosmos 1441 Rocket 2.9 17:03:35 10° SSW 17:06:57 80° WNW 17:10:17 10° N
In-Cosmos 22 Rocket 4.2 17:01:58 10° S 17:07:27 80° E 17:13:08 10° NNE
Cosmos 841 Rocket 4.1 17:03:14 10° SW 17:08:20 58° WNW 17:13:27 10° NNE
SAR-Lupe-5 4.3 17:06:23 10° NNE 17:08:57 52° ESE 17:11:23 10° S
Cosmos 1814 Rocket 4.4 17:04:55 10° S 17:09:55 45° ESE 17:14:53 10° NE
SAR-Lupe-4 3.5 17:06:48 10° SSE 17:10:20 67° ENE 17:13:55 10° N
Cosmos 1125 Rocket 3.8 17:07:10 10° NNW 17:12:09 44° NE 17:17:06 10° SE
Cosmos 1455 Rocket 4.2 17:09:38 10° NNE 17:12:58 21° ENE 17:16:17 10° ESE
Cosmos 2221 Rocket 4.4 17:16:30 10° SSE 17:20:20 29° E 17:24:12 10° NNE
YAOGAN 1 2.5 17:17:16 10° SSE 17:21:29 65° ENE 17:25:43 10° N
Okean 2 Rocket 3.2 17:17:34 10° N 17:21:53 51° ENE 17:26:09 10° SSE
Cosmos 2123 Rocket 4.0 17:16:16 10° S 17:22:35 82° E 17:28:55 10° NNE
Cosmos 1900 4.4 17:18:41 10° SSW 17:23:47 79° SE 17:28:50 10° NE
NOAA 6 4.2 17:19:34 10° SE 17:24:31 51° ENE 17:29:31 10° N
Okean 1 Rocket 3.3 17:21:05 10° N 17:25:22 48° ENE 17:29:36 10° SSE
Spot 4 Rocket 4.0 17:21:42 10° SSE 17:26:44 63° ENE 17:31:48 10° N
COSMOS 2428 2.7 17:21:52 10° NNW 17:27:39 88° ENE 17:33:23 10° SSE
Cosmos 1980 3.9 17:25:49 10° NNW 17:31:22 52° NE 17:36:52 10° SE
Sich 1 Rocket 3.8 17:26:58 10° N 17:31:26 52° ENE 17:35:53 10° SSE
SL-19 R/B 4.5 17:26:14 10° SE 17:32:18 62° ENE 17:38:08 10° NNW
Terra 3.8 17:33:16 11° NE 17:33:16 11° NE 17:34:09 10° NE
ARIANE 5 R/B 3.7 17:28:33 10° S 17:33:29 47° W 17:38:23 10° NNW
Aureole 3 Rocket 3.1 17:32:33 10° N 17:36:56 43° ENE 17:40:18 10° SE
Cosmos 2237 Rocket 2.4 17:31:25 10° NNW 17:36:59 53° NE 17:42:32 10° SE
Cosmos 158 Rocket 3.8 17:33:03 10° SSW 17:37:52 67° ESE 17:42:42 10° NNE
ATLAS 5 CENTAUR R/B 3.2 17:34:37 10° WNW 17:38:35 38° SW 17:43:22 10° SSE
Cosmos 192 4.4 17:33:44 10° NNW 17:38:38 84° WSW 17:43:31 10° SSE
SeaSat 1 3.9 17:35:45 10° S 17:40:21 40° WSW 17:44:59 10° NW
Cosmos 1378 Rocket 3.5 17:36:42 10° S 17:41:01 88° W 17:45:21 10° N
Resurs 01 Rocket 1.7 17:37:34 10° SE 17:41:49 51° ENE 17:46:07 10° N
SKYMED 2 3.5 17:37:49 10° NNE 17:42:12 86° ESE 17:46:33 10° SSW
ARIANE 6 FM1 Upper Stage 4.0 17:39:07 10° NW 17:42:23 23° NNE 17:44:13 17° NE
GP-B 3.7 17:40:37 10° S 17:44:55 61° W 17:49:16 10° N
Cosmos 2219 Rocket 4.4 17:41:38 10° NW 17:46:20 28° WSW 17:51:00 10° SSW
COSMO-SKYMED 1 2.4 17:42:25 10° NNE 17:46:30 58° E 17:50:34 10° S
Cosmos 2228 3.9 17:44:33 10° N 17:48:03 25° ENE 17:49:16 22° E
Cosmos 2292 Rocket 4.0 17:47:46 10° SSW 17:50:30 40° WNW 17:53:26 10° N
PSLV R/B 3.3 17:47:32 10° SSE 17:51:40 84° ENE 17:55:47 10° NNW
Cosmos 2322 4.4 17:46:12 10° NW 17:51:48 59° WSW 17:57:24 10° SSE
NOSS 3-3 (A) 3.9 17:47:43 10° SSW 17:52:45 53° SE 17:57:36 16° NE
USA 306 2.8 17:51:37 10° W 17:54:12 31° SW 17:55:03 22° S
Cosmos 1447 Rocket 4.5 17:48:34 10° S 17:54:33 58° E 18:00:34 10° NNE
Resurs 1-3 4.2 17:51:12 10° S 17:55:27 58° W 17:59:43 10° NNW
Cosmos 1782 4.4 17:53:50 10° NNE 17:55:10 16° NE 17:55:10 16° NE
Cosmos 2285 Rocket 4.0 17:52:16 10° NNW 17:58:46 82° ENE 18:05:11 10° SSE
Cosmos 1025 Rocket 2.9 17:55:02 10° S 17:59:20 81° E 18:03:41 10° NNE
SJ-7 4.4 17:55:47 10° S 17:59:27 69° WSW 18:03:09 10° NNW
SL-16 R/B 3.1 17:55:19 10° NNW 18:00:19 31° NE 18:02:26 24° ENE
Cosmos 2227 Rocket 3.6 18:01:07 10° SE 18:03:35 18° ESE 18:03:35 18° ESE
SJ-6B 2.4 18:05:12 10° SSE 18:08:36 62° ENE 18:12:01 10° N
NOSS 3-4 (A) 3.7 18:02:49 10° NW 18:09:18 74° NE 18:15:10 18° SE
NOSS 3-4 (C) 3.7 18:03:05 10° NW 18:09:35 73° NE 18:15:23 19° ESE
SPOT 5 3.4 18:08:20 25° ESE 18:10:29 39° ENE 18:15:11 10° N
Cosmos 2034 Rocket 4.4 18:09:28 10° N 18:15:12 38° ENE 18:18:04 25° ESE
Cosmos 1674 Rocket 4.2 18:11:16 10° SSW 18:15:36 58° WNW 18:19:59 10° N
Cosmos 1072 Rocket 4.5 18:10:57 10° N 18:17:10 59° ENE 18:23:15 10° SSE
Cosmos 1513 Rocket 4.4 18:11:19 10° N 18:17:35 75° ENE 18:23:55 10° SSE
Okean O Rocket 3.9 18:24:53 11° NNE 18:24:53 11° NNE 18:25:11 10° NNE
Cosmos 1867 4.0 18:18:28 10° WSW 18:23:51 61° NW 18:27:56 18° NE
CZ-4 R/B 2.6 18:28:09 25° NNE 18:28:09 25° NNE 18:30:04 10° N
ATLAS 2AS CENTAUR R/B 3.8 18:20:19 10° W 18:26:36 36° NNW 18:31:15 17° NE
CZ-4B R/B 3.8 18:26:45 33° ENE 18:26:58 33° ENE 18:31:41 10° N
Lacrosse 5 rocket 1.3 18:24:15 10° WSW 18:27:44 58° NNW 18:28:21 49° NNE
CZ-4B DEB 4.4 18:29:55 35° ESE 18:31:46 49° ENE 18:37:00 10° N
Meteor 1-31 Rocket 3.3 18:32:59 37° NNE 18:32:59 37° NNE 18:35:18 10° N
ADEOS 4.1 18:32:00 36° ENE 18:32:00 36° ENE 18:36:45 10° N
CZ-4C R/B 1.8 18:28:52 10° SW 18:33:16 82° NW 18:36:09 28° NE
IRAS Rocket 4.5 18:29:42 10° S 18:35:17 72° WSW 18:40:57 10° NNW
CRYOSAT 2 4.4 18:31:52 10° N 18:36:47 83° W 18:41:40 10° S
Feng Yun 1-1 Rocket 4.5 18:36:42 38° ESE 18:38:31 52° ENE 18:44:13 10° N
USA 267 3.5 18:41:48 31° ENE 18:45:01 63° N 18:51:28 10° W
Cosmos 1464 Rocket 3.9 18:38:56 10° N 18:45:21 83° ENE 18:51:42 10° SSE
CSL-04 Debris 4.0 18:44:38 31° SSE 18:47:21 74° ENE 18:52:47 10° NNW
ERS-1 Rocket 3.6 18:48:48 37° NE 18:48:48 37° NE 18:52:32 10° N
Cosmos 2297 Rocket 2.1 18:43:52 10° SSW 18:49:31 83° ESE 18:52:37 28° NE
Cosmos 1607 4.2 18:44:09 10° WSW 18:50:14 64° NW 18:54:10 23° NE
CSL-04 Rocket 3.5 18:47:26 28° SSE 18:50:17 82° ENE 18:55:35 10° NNW
Cosmos 1570 Rocket 3.8 18:45:13 10° SSW 18:50:29 78° ESE 18:52:48 35° NNE
Cosmos 1455 Rocket 3.8 18:46:47 10° NNW 18:50:57 50° W 18:55:07 10° S
Cosmos 1943 4.2 18:46:49 10° NNW 18:51:36 30° NE 18:51:36 30° NE
Cosmos 2344 4.0 18:44:58 10° S 18:51:12 35° SE 18:51:12 35° SE
DNEPR-1 R/B 3.8 18:48:22 10° NW 18:53:07 88° NE 18:54:13 57° SE
PAYLOAD B 4.1 19:05:27 64° SE 19:06:15 75° ENE 19:11:52 10° NNW
Cosmos 2208 Rocket 3.9 19:02:27 10° SSW 19:07:29 77° SE 19:07:29 77° SE
Terra 3.1 19:11:53 29° N 19:11:53 29° N 19:14:21 10° N
NOSS 3-3 (C) 4.0 19:09:06 10° WSW 19:14:31 68° NW 19:16:44 40° NNE
Resurs 01 Rocket 4.0 19:15:01 10° SW 19:18:28 22° W 19:21:57 10° NW
Cosmos 2237 Rocket 3.7 19:15:47 10° NW 19:20:52 34° WSW 19:25:53 10° S
ARIANE 6 FM1 Upper Stage 4.2 19:18:05 10° NW 19:20:14 30° NW 19:20:14 30° NW
Gblst 52 Del rocket 4.4 19:15:57 10° W 19:23:21 86° S 19:24:03 74° ESE
Cosmos 773 Rocket 4.1 19:19:47 10° SSW 19:25:03 76° WNW 19:25:06 76° NW
Cosmos 2228 4.2 19:21:16 10° NNW 19:25:09 39° W 19:25:37 38° WSW
SL-16 R/B 2.5 19:39:16 10° NW 19:44:19 64° WNW 19:44:19 64° WNW
Cosmos 2227 Rocket 3.5 19:42:49 10° SSW 19:45:30 29° SW 19:45:30 29° SW
SPOT 5 4.3 19:47:22 31° WSW 19:48:28 35° W 19:53:06 10° NNW
Okean O Rocket 4.3 20:02:07 13° NNW 20:02:07 13° NNW 20:02:36 10° NNW
CZ-4 R/B 4.3 20:03:09 13° NW 20:03:09 13° NW 20:03:46 10° NW
Lacrosse 5 rocket 4.4 20:01:38 10° WNW 20:01:47 11° WNW 20:01:47 11° WNW
CZ-4B R/B 4.3 20:08:36 41° WNW 20:08:36 41° WNW 20:12:33 10° NNW
BREEZE-M DEB (TANK) 4.4 19:58:49 10° W 20:10:45 48° SW 20:10:45 48° SW
ATLAS 2AS CENTAUR R/B 3.8 20:13:06 10° NW 20:18:40 33° N 20:18:40 33° N
CZ-4C R/B 3.7 20:17:48 10° W 20:21:07 29° NW 20:21:07 29° NW
USA 267 3.8 20:29:08 52° NW 20:29:08 52° NW 20:34:10 10° WNW
Cosmos 2297 Rocket 4.0 20:29:27 10° W 20:34:13 27° NW 20:34:29 27° NW
